When you browse on this site, cookies collect data to enhance your experience and personalize the content and advertising you see.
Visit our Privacy Policy to learn more. By continuing to use the site, you agree to this use of cookies and data.
  • In Switzerland
  • List of Countries
  • For 7 days
  • Water Temperature
  • Satellite Maps
  • Weather Map
  • Weather Widgets
  • user-avatar
    Login

    Hourly Weather Cuiaba

    Today, 21 November, Wednesday

    Time Temperature Precipitation Wind Pressure Humidity
    00:00 +26°C° 0.2 mm 1 mps 740 mmHg 89%
    01:00 +24°C° 0.2 mm 0 mps 740 mmHg 89%
    02:00 +23°C° 0.2 mm 0 mps 739 mmHg 90%
    03:00 +23°C° 0 mm 0 mps 739 mmHg 90%
    04:00 +23°C° 0 mm 0 mps 739 mmHg 90%
    05:00 +23°C° 0 mm 0 mps 739 mmHg 91%
    06:00 +25°C° 0.1 mm 0 mps 740 mmHg 85%
    07:00 +28°C° 0.1 mm 1 mps 740 mmHg 80%
    08:00 +29°C° 0.1 mm 1 mps 741 mmHg 75%
    09:00 +31°C° 1 mm 1 mps 740 mmHg 70%
    10:00 +32°C° 1 mm 2 mps 740 mmHg 66%
    11:00 +34°C° 1 mm 2 mps 740 mmHg 61%
    12:00 +34°C° 2.2 mm 2 mps 739 mmHg 64%
    13:00 +34°C° 2.2 mm 2 mps 738 mmHg 66%
    14:00 +32°C° 2.2 mm 1 mps 738 mmHg 69%
    15:00 +31°C° 1 mm 1 mps 737 mmHg 72%
    16:00 +31°C° 1 mm 1 mps 737 mmHg 76%
    17:00 +30°C° 1 mm 1 mps 737 mmHg 79%
    18:00 +29°C° 0 mm 1 mps 737 mmHg 81%
    19:00 +28°C° 0 mm 1 mps 738 mmHg 83%
    20:00 +27°C° 0 mm 1 mps 738 mmHg 85%
    21:00 +27°C° 0 mm 1 mps 738 mmHg 86%
    22:00 +26°C° 0 mm 1 mps 738 mmHg 86%
    23:00 +26°C° 0 mm 1 mps 739 mmHg 86%

    Tomorrow, 22 November, Thursday

    Time Temperature Precipitation Wind Pressure Humidity
    00:00 +26°C° 0.9 mm 1 mps 738 mmHg 88%
    01:00 +26°C° 0.9 mm 1 mps 738 mmHg 89%
    02:00 +25°C° 0.9 mm 1 mps 737 mmHg 91%
    03:00 +25°C° 0.7 mm 1 mps 738 mmHg 91%
    04:00 +25°C° 0.7 mm 1 mps 738 mmHg 92%
    05:00 +25°C° 0.7 mm 1 mps 738 mmHg 92%
    06:00 +26°C° 0.4 mm 1 mps 739 mmHg 91%
    07:00 +26°C° 0.4 mm 1 mps 739 mmHg 89%
    08:00 +27°C° 0.4 mm 1 mps 740 mmHg 88%
    09:00 +29°C° 0.2 mm 2 mps 739 mmHg 79%
    10:00 +31°C° 0.2 mm 3 mps 739 mmHg 71%
    11:00 +33°C° 0.2 mm 3 mps 739 mmHg 63%
    12:00 +34°C° 1.4 mm 3 mps 738 mmHg 63%
    13:00 +34°C° 1.4 mm 3 mps 737 mmHg 64%
    14:00 +34°C° 1.4 mm 3 mps 737 mmHg 65%
    15:00 +33°C° 0.8 mm 3 mps 737 mmHg 69%
    16:00 +31°C° 0.8 mm 2 mps 736 mmHg 73%
    17:00 +30°C° 0.8 mm 2 mps 736 mmHg 78%
    18:00 +29°C° 0.3 mm 2 mps 737 mmHg 80%
    19:00 +28°C° 0.3 mm 2 mps 738 mmHg 83%
    20:00 +27°C° 0.3 mm 2 mps 738 mmHg 85%
    21:00 +27°C° 0 mm 2 mps 738 mmHg 86%
    22:00 +27°C° 0 mm 2 mps 739 mmHg 86%
    23:00 +26°C° 0 mm 3 mps 739 mmHg 86%

    Day after tomorrow, 23 November, Friday

    Time Temperature Precipitation Wind Pressure Humidity
    00:00 +26°C° 0 mm 2 mps 738 mmHg 86%
    01:00 +26°C° 0 mm 2 mps 737 mmHg 87%
    02:00 +26°C° 0 mm 2 mps 737 mmHg 87%
    03:00 +25°C° 0.1 mm 2 mps 737 mmHg 88%
    04:00 +25°C° 0.1 mm 2 mps 737 mmHg 89%
    05:00 +25°C° 0.1 mm 2 mps 738 mmHg 89%
    06:00 +26°C° 0.2 mm 2 mps 738 mmHg 86%
    07:00 +27°C° 0.2 mm 2 mps 739 mmHg 83%
    08:00 +28°C° 0.2 mm 2 mps 739 mmHg 80%
    09:00 +29°C° 0.1 mm 3 mps 739 mmHg 75%
    10:00 +30°C° 0.1 mm 3 mps 739 mmHg 70%
    11:00 +31°C° 0.1 mm 3 mps 739 mmHg 65%
    12:00 +31°C° 0 mm 3 mps 738 mmHg 63%
    13:00 +33°C° 0 mm 3 mps 737 mmHg 60%
    14:00 +34°C° 0 mm 3 mps 736 mmHg 58%
    15:00 +32°C° 0.1 mm 2 mps 736 mmHg 62%
    16:00 +31°C° 0.1 mm 2 mps 736 mmHg 65%
    17:00 +31°C° 0.1 mm 1 mps 736 mmHg 69%
    18:00 +30°C° 0.1 mm 2 mps 736 mmHg 72%
    19:00 +29°C° 0.1 mm 2 mps 737 mmHg 75%
    20:00 +28°C° 0.1 mm 2 mps 737 mmHg 78%
    21:00 +27°C° 0.2 mm 2 mps 738 mmHg 79%
    22:00 +27°C° 0.2 mm 2 mps 738 mmHg 81%
    23:00 +27°C° 0.2 mm 2 mps 738 mmHg 82%

    24 November, Saturday

    Time Temperature Precipitation Wind Pressure Humidity
    00:00 +27°C° 0 mm 2 mps 737 mmHg 82%
    01:00 +26°C° 0 mm 2 mps 737 mmHg 83%
    02:00 +26°C° 0 mm 2 mps 736 mmHg 83%
    03:00 +26°C° 0 mm 2 mps 736 mmHg 84%
    04:00 +26°C° 0 mm 2 mps 737 mmHg 84%
    05:00 +25°C° 0 mm 2 mps 737 mmHg 85%
    06:00 +27°C° 0 mm 2 mps 738 mmHg 80%
    07:00 +28°C° 0 mm 3 mps 738 mmHg 75%
    08:00 +29°C° 0 mm 3 mps 739 mmHg 71%
    09:00 +30°C° 0 mm 3 mps 739 mmHg 67%
    10:00 +31°C° 0 mm 3 mps 738 mmHg 64%
    11:00 +33°C° 0 mm 3 mps 738 mmHg 60%
    12:00 +34°C° 0.4 mm 4 mps 737 mmHg 60%
    13:00 +34°C° 0.4 mm 4 mps 736 mmHg 59%
    14:00 +35°C° 0.4 mm 4 mps 735 mmHg 59%
    15:00 +33°C° 1.4 mm 3 mps 735 mmHg 66%
    16:00 +31°C° 1.4 mm 3 mps 735 mmHg 73%
    17:00 +30°C° 1.4 mm 2 mps 735 mmHg 80%
    18:00 +29°C° 0.1 mm 2 mps 736 mmHg 83%
    19:00 +28°C° 0.1 mm 2 mps 736 mmHg 85%
    20:00 +27°C° 0.1 mm 2 mps 737 mmHg 88%
    21:00 +26°C° 0.3 mm 2 mps 737 mmHg 89%
    22:00 +26°C° 0.3 mm 2 mps 737 mmHg 90%
    23:00 +26°C° 0.3 mm 2 mps 738 mmHg 91%

    25 November, Sunday

    Time Temperature Precipitation Wind Pressure Humidity
    00:00 +26°C° 1.4 mm 2 mps 737 mmHg 91%
    01:00 +26°C° 1.4 mm 2 mps 737 mmHg 92%
    02:00 +25°C° 1.4 mm 2 mps 736 mmHg 93%
    03:00 +25°C° 0.4 mm 1 mps 736 mmHg 93%
    04:00 +25°C° 0.4 mm 1 mps 737 mmHg 92%
    05:00 +25°C° 0.4 mm 1 mps 737 mmHg 92%
    06:00 +26°C° 0.4 mm 2 mps 737 mmHg 89%
    07:00 +27°C° 0.4 mm 2 mps 738 mmHg 85%
    08:00 +29°C° 0.4 mm 2 mps 738 mmHg 82%
    09:00 +29°C° 1.3 mm 2 mps 738 mmHg 79%
    10:00 +30°C° 1.3 mm 3 mps 737 mmHg 76%
    11:00 +31°C° 1.3 mm 3 mps 737 mmHg 74%
    12:00 +33°C° 1.1 mm 3 mps 736 mmHg 71%
    13:00 +34°C° 1.1 mm 3 mps 735 mmHg 69%
    14:00 +34°C° 1.1 mm 3 mps 735 mmHg 66%
    15:00 +32°C° 1.4 mm 2 mps 734 mmHg 71%
    16:00 +31°C° 1.4 mm 2 mps 734 mmHg 76%
    17:00 +30°C° 1.4 mm 1 mps 734 mmHg 82%
    18:00 +29°C° 0.7 mm 1 mps 735 mmHg 84%
    19:00 +28°C° 0.7 mm 1 mps 735 mmHg 87%
    20:00 +27°C° 0.7 mm 1 mps 736 mmHg 89%
    21:00 +27°C° 0.6 mm 1 mps 736 mmHg 90%
    22:00 +26°C° 0.6 mm 2 mps 736 mmHg 91%
    23:00 +26°C° 0.6 mm 2 mps 737 mmHg 92%

    26 November, Monday

    Time Temperature Precipitation Wind Pressure Humidity
    00:00 +26°C° 0.2 mm 1 mps 736 mmHg 93%
    01:00 +26°C° 0.2 mm 1 mps 736 mmHg 93%
    02:00 +25°C° 0.2 mm 1 mps 735 mmHg 93%
    03:00 +25°C° 0.1 mm 1 mps 735 mmHg 94%
    04:00 +25°C° 0.1 mm 1 mps 736 mmHg 94%
    05:00 +25°C° 0.1 mm 1 mps 736 mmHg 95%
    06:00 +26°C° 0.7 mm 1 mps 736 mmHg 91%
    07:00 +28°C° 0.7 mm 2 mps 737 mmHg 87%
    08:00 +29°C° 0.7 mm 2 mps 738 mmHg 83%
    09:00 +30°C° 1.6 mm 2 mps 737 mmHg 79%
    10:00 +31°C° 1.6 mm 2 mps 737 mmHg 75%
    11:00 +32°C° 1.6 mm 2 mps 737 mmHg 71%
    12:00 +32°C° 1.1 mm 2 mps 736 mmHg 70%
    13:00 +33°C° 1.1 mm 3 mps 735 mmHg 69%
    14:00 +34°C° 1.1 mm 3 mps 735 mmHg 69%
    15:00 +32°C° 1.5 mm 2 mps 735 mmHg 74%
    16:00 +31°C° 1.5 mm 2 mps 735 mmHg 79%
    17:00 +30°C° 1.5 mm 2 mps 734 mmHg 85%
    18:00 +29°C° 0.6 mm 2 mps 735 mmHg 87%
    19:00 +28°C° 0.6 mm 2 mps 735 mmHg 89%
    20:00 +26°C° 0.6 mm 2 mps 736 mmHg 91%
    21:00 +26°C° 0 mm 1 mps 736 mmHg 92%
    22:00 +26°C° 0 mm 1 mps 736 mmHg 92%
    23:00 +26°C° 0 mm 1 mps 736 mmHg 93%
    Show more